Zurück zum Katalog

COSMOS 1359

AktivNavigationLEO
NORAD 13162·PAYLOAD·🇷🇺 Russia

Gestartet May 6, 1982 von Plesetsk Cosmodrome

Loading…

Nächste Überflüge (nächste 24 Stunden)

TLE

AktuellSource: Space-Track

Epoche: Sep 14, 2026, 14:02 UTC

1 13162U 82040C   26257.58480003 -.00000008  00000-0  54021-4 0  9992
2 13162  74.0093 112.6883 0031077 193.4831 194.7563 12.52043215 28778

Verfolge COSMOS 1359 in Echtzeit mit AllMySat

Download on the App Store